Location: Mahannah Oil Field
(37.4664°N, 96.6003°W)
Time: 23:45:36
(UTC+00:00)

deb Explorer IX - Pass Details

Date: 02 February 2021
Orbit: 538 x 1101 km, 38.8° (Epoch: 06 March)

Event Time Altitude Azimuth Distance (km) Brightness Sun altitude
Rises 03:03:13 0° 278° (W) 3,614 ? -38.3°
Reaches altitude 10° 03:06:55 10° 260° (W) 2,549 ? -39.0°
Enters shadow 03:09:42 16° 233° (SW) 2,044 ? -39.6°
